Regional Weather Roundup
Issued by NWS Sioux Falls, SD

Home | Current Version | Previous Version | Graphics & Text | Print | Product List | Glossary On
Versions: 1 2 3 4 5 6 7 8 9 10 11 12 13 14 15 16 17 18 19 20 21 22 23 24 25 26 27 28 29 30 31 32 33 34 35 36 37 38 39 40 41 42 43 44 45 46 47 48 49 50
000
ASUS43 KFSD 232202
RWRFSD

WEATHER ROUNDUP FOR SE SOUTH DAKOTA/SW MINNESOTA/NW IOWA
NATIONAL WEATHER SERVICE SIOUX FALLS SD
400 PM CST THU NOV 23 2017

NOTE: "FAIR" INDICATES FEW OR NO CLOUDS BELOW 12,000 FEET WITH NO
SIGNIFICANT WEATHER AND OR OBSTRUCTIONS TO VISIBILITY.


SDZ038>040-050-052>070-232300-
SOUTHEAST SOUTH DAKOTA

CITY           SKY/WX    TMP DP  RH WIND       PRES   REMARKS
BROOKINGS      CLEAR     53  37  54 S10       29.75S
CHAMBERLAIN    CLOUDY    66  46  47 SW3       29.73F
HURON          CLOUDY    58  41  53 S5        29.72S
MADISON        FAIR      55  39  54 SW10      29.76S
MITCHELL       CLOUDY    64  42  44 S7        29.74F
SIOUX FALLS    CLOUDY    57  39  51 S12       29.77F
WINNER         FAIR      72  41  32 W6        29.76F
YANKTON        CLEAR     68  43  40 S6        29.78F
$$

MNZ071-072-080-081-089-090-097-098-232300-
SOUTHWEST MINNESOTA

CITY           SKY/WX    TMP DP  RH WIND       PRES   REMARKS
FAIRMONT       CLEAR     50  31  48 S10       29.82F
JACKSON        CLEAR     50  32  50 S9        29.80F
MARSHALL       CLOUDY    57  36  45 SW10      29.73F
MONTEVIDEO     CLOUDY    52  34  50 S7        29.72F
PIPESTONE      CLEAR     52  34  50 SW12      29.76F
REDWOOD FALLS  CLOUDY    49  30  48 SE10      29.75F
WINDOM         CLOUDY    54  32  43 S9        29.78F
WORTHINGTON    CLOUDY    53  34  48 S13       29.79F
$$

IAZ001>003-012>014-020>022-031-032-NEZ013-014-SDZ071-232300-
NORTHWEST IOWA

CITY           SKY/WX    TMP DP  RH WIND       PRES   REMARKS
CHEROKEE       PTCLDY    57  34  41 S12       29.83F
DENISON        CLOUDY    61  36  39 S9        29.87F
ESTHERVILLE    CLEAR     48  32  53 S8        29.81F
LE MARS        CLEAR     57  37  47 S12       29.81F
ORANGE CITY    CLEAR     57  39  51 S13       29.81F
SHELDON        CLOUDY    55  34  44 S8G14     29.79F
SIOUX CITY     CLEAR     62  39  42 S9        29.82F
SPENCER        CLOUDY    54  32  43 S9        29.81F
STORM LAKE     CLOUDY    55  34  44 S12       29.83F
$$

ABBREVIATIONS USED IN REMARKS
   TC - TEMPERATURE IN CELSIUS
  WCI - WIND CHILL INDEX
   HX - HEAT INDEX
  VSB - VISIBILITY




USA.gov is the U.S. government's official web portal to all federal, state and local government web resources and services.